User: anonymous   Login
Location: Unspecified
(45.6687°N, 0.0000°E)
Time: 19:32:40
(UTC+00:00)
Language:

BRO-12 - Orbit

View from above orbital plane
View from above orbital plane
View from above satellite
View from above satellite

Ground track
Ground track

The orbit is defined by the following mean orbital elements,

1 59108U          26088.19862975 +.00000000 +00000-0 +17496-3 0 00007
2 59108  97.8350 219.1795 0006905 258.5535 101.4911 14.96612362    01
Epoch (UTC): 29 March 2026 04:46:01
Eccentricity: 0.0006905
inclination: 97.8350°
perigee height: 573 km
apogee height: 582 km
right ascension of ascending node: 219.1795°
argument of perigee: 258.5535°
revolutions per day: 14.96612362
mean anomaly at epoch: 101.4911°

The dashed part of the orbit path shows where the satellite is in the earth's shadow,  

DLR